Location: Lake Sonoma
(38.7200°N, 123.0564°W)
Time: 14:43:12
(UTC-08:00)

Amateur Radio Satellites - All Passes

Search period start: 28 November 2014 14:13
Search period end: 29 November 2014 14:13
Location: Lake Sonoma, 38.7200°N, 123.0564°W

Satellite Date Start Highest point End Downlink Frequencies (MHz)
Time Altitude Azimuth
M-CUBED/EXP-1 PRIME 28 Nov 14:15:24 14:20:07 46° 293° (WNW) 14:24:40 437.505
MaSat-1 28 Nov 14:19:30 14:22:26 65° 113° (ESE) 14:25:07 437.345
YUBILEINY 28 Nov 14:21:45 14:30:08 55° 270° (W) 14:38:28 435.215
STARS 28 Nov 14:28:12 14:32:07 31° 97° (E) 14:36:01 437.465
VERMONT LUNAR 28 Nov 14:43:57 14:47:34 77° 350° (N) 14:51:12 437.305
PHONESAT 2.4 28 Nov 14:44:32 14:48:15 90° 342° (NNW) 14:51:59 2401.200-2431.200
ITAMSAT 1 28 Nov 14:51:35 14:55:24 20° 266° (W) 14:59:13 435.822/435.867
ITUPSAT 1 28 Nov 14:55:38 14:59:10 21° 294° (WNW) 15:02:41 437.325
O/OREOS (USA 219) 28 Nov 15:00:46 15:05:05 45° 65° (ENE) 15:09:23 437.305
SWISSCUBE 28 Nov 15:06:05 15:08:49 15° 297° (WNW) 15:11:33 437.505
KKS-1 28 Nov 15:14:41 15:18:59 51° 287° (WNW) 15:23:17 437.445
JAS-2 28 Nov 15:17:14 15:23:16 26° 61° (ENE) 15:29:19 435.910
HORYU 2 28 Nov 15:30:55 15:34:38 26° 264° (W) 15:38:23 437.375
Gurwin Techsat 1B 28 Nov 15:42:42 15:44:49 12° 270° (W) 15:46:55 435.225
AO-7 28 Nov 16:00:25 16:08:36 64° 256° (WSW) 16:16:52 29.400- 29.500
STARS 28 Nov 16:05:02 16:08:25 22° 292° (WNW) 16:11:49 437.465
Cubesat XI-IV 28 Nov 16:15:16 16:17:51 14° 61° (ENE) 16:20:27 437.490
RS-15 28 Nov 16:19:51 16:30:50 75° 303° (WNW) 16:41:49 29.354- 29.394
VERMONT LUNAR 28 Nov 16:22:35 16:26:12 68° 7° (N) 16:29:49 437.305
PHONESAT 2.4 28 Nov 16:23:29 16:27:11 65° 3° (N) 16:30:53 2401.200-2431.200
MOZHAYETS 4 28 Nov 16:40:05 16:44:21 35° 97° (E) 16:48:35
O/OREOS (USA 219) 28 Nov 16:41:29 16:44:03 15° 261° (W) 16:46:38 437.305
CUTE-I 28 Nov 16:53:24 16:58:00 30° 67° (ENE) 17:02:36 437.470
JAS-2 28 Nov 16:59:53 17:07:31 71° 258° (WSW) 17:15:24 435.910
Cubesat XI-IV 28 Nov 17:51:53 17:57:15 78° 257° (WSW) 18:02:38 437.490
VERMONT LUNAR 28 Nov 18:01:07 18:04:38 49° 203° (SSW) 18:08:09 437.305
PHONESAT 2.4 28 Nov 18:02:20 18:06:01 65° 200° (SSW) 18:09:42 2401.200-2431.200
PCSat 28 Nov 18:12:55 18:17:34 30° 109° (ESE) 18:22:15 145.827
GONETS M04 28 Nov 18:15:59 18:23:54 35° 72° (ENE) 18:31:41
MOZHAYETS 4 28 Nov 18:17:46 18:21:21 22° 293° (WNW) 18:24:55
PRISM 28 Nov 18:23:12 18:27:27 82° 104° (ESE) 18:31:39 437.425
CUBESAT XI-V 28 Nov 18:30:02 18:34:19 36° 97° (E) 18:38:33 437.345
CUTE-I 28 Nov 18:33:11 18:37:57 33° 263° (W) 18:42:45 437.470
STRAND 1 28 Nov 18:35:17 18:40:01 38° 98° (E) 18:44:43 437.568
RS-15 28 Nov 18:36:53 18:45:23 25° 330° (NNW) 18:54:02 29.354- 29.394
BEESAT 3 28 Nov 18:42:02 18:45:32 28° 113° (ESE) 18:49:04 437.485
JAS-2 28 Nov 18:51:11 18:53:42 12° 276° (W) 18:56:14 435.910
BEESAT 2 28 Nov 18:59:39 19:03:29 39° 115° (ESE) 19:07:23 435.950
HO-68 28 Nov 19:00:31 19:06:13 26° 60° (ENE) 19:11:55 435.675
BRITE-PL 28 Nov 19:12:09 19:14:48 15° 66° (ENE) 19:17:21 437.365/2234.400
SEEDS 28 Nov 19:16:05 19:17:34 12° 64° (ENE) 19:19:04 437.485
AAUSAT CUBESAT 2 28 Nov 19:26:46 19:28:05 11° 64° (ENE) 19:29:25 437.432
AIST 1 28 Nov 19:36:46 19:41:09 69° 278° (W) 19:45:34
VERMONT LUNAR 28 Nov 19:41:27 19:42:34 11° 217° (SW) 19:43:40 437.305
PHONESAT 2.4 28 Nov 19:42:00 19:44:23 16° 214° (SW) 19:46:46 2401.200-2431.200
COMPASS 1 28 Nov 19:42:23 19:45:23 20° 68° (ENE) 19:48:25 437.405
CANX-2 28 Nov 19:46:00 19:49:45 32° 71° (ENE) 19:53:31 2200.000
AIST 2 28 Nov 19:47:38 19:51:47 65° 118° (ESE) 19:56:03 435.215
PCSat 28 Nov 19:55:53 20:00:51 36° 306° (NW) 20:05:51 145.827
DX 1 28 Nov 20:03:14 20:05:44 15° 65° (ENE) 20:08:14 434.975-435.025
GOMX 1 28 Nov 20:04:02 20:08:18 35° 72° (ENE) 20:12:19 467.674
CUBESAT XI-V 28 Nov 20:08:01 20:11:31 21° 293° (WNW) 20:14:59 437.345
GONETS M04 28 Nov 20:12:33 20:20:53 49° 271° (W) 20:29:08
CUBEBUG 2 28 Nov 20:14:08 20:15:32 12° 64° (ENE) 20:16:56 437.445
STRAND 1 28 Nov 20:14:56 20:18:59 24° 294° (WNW) 20:23:00 437.568
CUTE 1.7 + AOD 2 28 Nov 20:19:42 20:23:53 74° 76° (ENE) 20:28:08 437.475
BEESAT 3 28 Nov 20:20:13 20:23:42 26° 310° (NW) 20:27:14 437.485
ZACube-1 28 Nov 20:34:46 20:37:03 15° 66° (ENE) 20:39:19 437.345
BEESAT 2 28 Nov 20:38:50 20:41:55 20° 312° (NW) 20:45:03 435.950
DOVE 4 28 Nov 20:44:58 20:49:31 74° 76° (ENE) 20:53:51 437.250
HO-68 28 Nov 20:46:20 20:53:24 60° 258° (WSW) 21:00:31 435.675
VELOX 1 28 Nov 20:47:07 20:49:28 14° 64° (ENE) 20:51:49 145.980
BRITE-PL 28 Nov 20:48:05 20:52:57 55° 260° (W) 20:57:28 437.365/2234.400
DELFI C3 28 Nov 20:48:33 20:52:21 40° 73° (ENE) 20:56:12 145.870
SEEDS 28 Nov 20:48:47 20:52:53 57° 260° (W) 20:57:03 437.485
RS-15 28 Nov 20:56:57 21:03:30 17° 7° (N) 21:10:10 29.354- 29.394
CINEMA 3 28 Nov 20:57:39 21:01:56 60° 75° (ENE) 21:06:05 145.822/145.860
50 SAT 28 Nov 20:57:47 20:59:26 12° 65° (ENE) 21:01:06 437.505
UKube-1 28 Nov 20:58:25 21:02:41 59° 74° (ENE) 21:06:59 .
AAUSAT CUBESAT 2 28 Nov 20:59:09 21:03:14 59° 260° (W) 21:07:22 437.432
FUNcube-1 28 Nov 21:07:13 21:10:58 33° 71° (ENE) 21:14:41 145.935
Oscar 11 28 Nov 21:07:17 21:11:34 83° 76° (ENE) 21:15:54 145.826/435.025
ISS 28 Nov 21:09:33 21:11:41 16° 130° (SE) 21:13:48 145.825
AISAT 28 Nov 21:13:43 21:17:30 28° 69° (ENE) 21:21:17 437.250
COMPASS 1 28 Nov 21:17:11 21:20:54 31° 263° (W) 21:24:40 437.405
CUBEBUG 1 28 Nov 21:18:02 21:18:46 10° 62° (ENE) 21:19:29 437.445
CANX-2 28 Nov 21:22:43 21:25:44 19° 266° (W) 21:28:47 2200.000
HUMSAT D 28 Nov 21:28:19 21:32:03 34° 72° (ENE) 21:35:46 437.325/437.525
AIST 2 28 Nov 21:28:25 21:30:52 15° 316° (NW) 21:33:19 435.215
DX 1 28 Nov 21:37:20 21:41:33 48° 260° (W) 21:45:48 434.975-435.025
UWE-3 28 Nov 21:40:58 21:45:11 81° 258° (WSW) 21:49:22 435.000/436.395/437.385
GOMX 1 28 Nov 21:43:01 21:46:28 20° 265° (W) 21:49:47 467.674
CUBEBUG 2 28 Nov 21:47:35 21:51:46 57° 260° (W) 21:55:53 437.445
UNISAT 6 28 Nov 21:48:17 21:50:48 15° 92° (E) 21:53:20 437.425
POLYITAN 1 28 Nov 21:59:25 22:00:55 12° 91° (E) 22:02:25 437.675
QB50P2 28 Nov 22:00:02 22:01:38 12° 91° (E) 22:03:14 145.880/145.840
DUCHIFAT 1 28 Nov 22:03:37 22:05:32 13° 92° (E) 22:07:27 145.980
ZACube-1 28 Nov 22:09:03 22:13:04 44° 261° (W) 22:17:03 437.345
ANTELSAT 28 Nov 22:16:13 22:20:11 30° 97° (E) 22:24:13 437.575/2403.000
VELOX 1 28 Nov 22:21:13 22:25:35 54° 260° (W) 22:29:59 145.980
NANOSAT C BR1 28 Nov 22:22:25 22:25:43 22° 95° (E) 22:28:59 145.865
DELFI C3 28 Nov 22:25:37 22:27:50 14° 268° (W) 22:30:05 145.870
BUGSAT 1 28 Nov 22:26:41 22:29:35 19° 94° (E) 22:32:29 437.445
SPROUT 28 Nov 22:27:34 22:29:34 13° 64° (ENE) 22:31:34 437.525
50 SAT 28 Nov 22:30:24 22:34:18 49° 260° (W) 22:38:13 437.505
ESTCUBE 1 28 Nov 22:31:13 22:35:44 71° 75° (ENE) 22:40:18 437.505/2401.250
QB50P1 28 Nov 22:32:29 22:36:10 28° 97° (E) 22:39:49 145.935-145.965
UKube-1 28 Nov 22:37:52 22:39:12 11° 269° (W) 22:40:32 .
CINEMA 3 28 Nov 22:38:52 22:39:28 10° 269° (W) 22:40:04 145.822/145.860
CUSAT 1 28 Nov 22:40:51 22:45:18 28° 77° (ENE) 22:50:52 437.405
FUNcube-1 28 Nov 22:44:30 22:47:24 18° 266° (W) 22:50:17 145.935
ISS 28 Nov 22:44:51 22:48:02 47° 325° (NW) 22:51:14 145.825
CUBEBUG 1 28 Nov 22:50:04 22:54:30 74° 258° (WSW) 22:58:57 437.445
AISAT 28 Nov 22:50:21 22:54:04 26° 264° (W) 22:57:48 437.250
JUGNU 28 Nov 22:53:33 22:54:40 11° 174° (S) 22:55:46 437.505
POPSAT HIP 1 28 Nov 22:57:23 23:01:33 56° 101° (E) 23:05:41 437.405
HUMSAT D 28 Nov 23:05:14 23:07:57 17° 266° (W) 23:10:41 437.325/437.525
TIGRISAT 28 Nov 23:07:50 23:12:17 74° 284° (WNW) 23:16:51 435.000
RS-15 28 Nov 23:10:35 23:20:39 36° 41° (NE) 23:31:01 29.354- 29.394
DANDE 28 Nov 23:20:45 23:25:36 53° 80° (E) 23:32:06 436.750
AUBIESAT-1 28 Nov 23:23:19 23:25:49 15° 58° (ENE) 23:28:27 437.475
UNISAT 6 28 Nov 23:23:29 23:27:49 49° 287° (WNW) 23:32:13 437.425
BEESAT 28 Nov 23:28:20 23:29:55 12° 61° (ENE) 23:31:31 436.000
M-CUBED/EXP-1 PRIME 28 Nov 23:30:15 23:33:18 20° 60° (ENE) 23:36:32 437.505
POLYITAN 1 28 Nov 23:33:03 23:37:10 53° 286° (WNW) 23:41:17 437.675
QB50P2 28 Nov 23:33:44 23:37:51 52° 286° (WNW) 23:41:57 145.880/145.840
DUCHIFAT 1 28 Nov 23:37:36 23:41:40 47° 287° (WNW) 23:45:42 145.980
TISAT 1 28 Nov 23:40:38 23:44:54 81° 258° (WSW) 23:49:11 437.305
ANTELSAT 28 Nov 23:53:14 23:56:51 24° 291° (WNW) 00:00:32 437.575/2403.000
NANOSAT C BR1 28 Nov 23:57:58 00:01:35 28° 290° (WNW) 00:05:11 145.865
MaSat-1 28 Nov 23:58:23 00:00:42 73° 63° (ENE) 00:03:08 437.345
SPROUT 29 Nov 00:00:58 00:05:11 54° 260° (W) 00:09:26 437.525
BUGSAT 1 29 Nov 00:01:35 00:05:08 30° 290° (WNW) 00:08:39 437.445
QB50P1 29 Nov 00:08:38 00:11:54 22° 292° (WNW) 00:15:09 145.935-145.965
ITUPSAT 1 29 Nov 00:22:43 00:27:12 40° 71° (ENE) 00:31:43 437.325
CUSAT 1 29 Nov 00:23:32 00:28:22 38° 265° (W) 00:34:34 437.405
ISS 29 Nov 00:23:51 00:25:19 12° 344° (NNW) 00:26:47 145.825
Oscar 19 29 Nov 00:26:43 00:28:43 12° 90° (E) 00:30:43 437.125/150
SWISSCUBE 29 Nov 00:32:05 00:36:46 56° 73° (ENE) 00:41:29 437.505
POPSAT HIP 1 29 Nov 00:35:19 00:36:57 12° 296° (WNW) 00:38:35 437.405
KKS-1 29 Nov 00:38:23 00:39:50 11° 63° (ENE) 00:41:16 437.445
JUGNU 29 Nov 00:41:13 00:42:45 11° 184° (S) 00:44:18 437.505
AUBIESAT-1 29 Nov 00:56:16 01:00:17 52° 256° (WSW) 01:04:41 437.475
SRMSAT 29 Nov 00:57:54 00:59:54 12° 178° (S) 01:01:54 437.500
BEESAT 29 Nov 01:02:19 01:07:06 77° 257° (WSW) 01:11:55 436.000
M-CUBED/EXP-1 PRIME 29 Nov 01:04:11 01:08:01 38° 258° (WSW) 01:12:12 437.505
DANDE 29 Nov 01:05:21 01:09:01 19° 267° (W) 01:13:22 436.750
RS-15 29 Nov 01:22:46 01:33:58 73° 244° (WSW) 01:45:42 29.354- 29.394
STARS 29 Nov 01:24:40 01:28:12 24° 68° (ENE) 01:31:45 437.465
YUBILEINY 29 Nov 01:24:46 01:32:34 37° 86° (E) 01:40:21 435.215
ITAMSAT 1 29 Nov 01:26:04 01:29:30 18° 93° (E) 01:32:55 435.822/435.867
ITUPSAT 1 29 Nov 02:01:44 02:05:13 20° 266° (W) 02:08:45 437.325
Oscar 19 29 Nov 02:03:23 02:08:33 73° 286° (WNW) 02:13:42 437.125/150
KKS-1 29 Nov 02:11:28 02:15:53 67° 258° (WSW) 02:20:20 437.445
SWISSCUBE 29 Nov 02:12:25 02:14:57 14° 268° (W) 02:17:31 437.505
Gurwin Techsat 1B 29 Nov 02:17:00 02:21:46 33° 97° (E) 02:26:30 435.225
SO-50 29 Nov 02:31:38 02:35:57 49° 116° (ESE) 02:40:25 436.795
SRMSAT 29 Nov 02:47:32 02:48:09 10° 188° (S) 02:48:47 437.500
STARS 29 Nov 03:00:46 03:04:34 28° 263° (W) 03:08:22 437.465
PCSat 29 Nov 03:02:05 03:06:09 21° 48° (NE) 03:10:11 145.827
BEESAT 3 29 Nov 03:03:42 03:06:10 15° 45° (NE) 03:08:37 437.485
ITAMSAT 1 29 Nov 03:04:15 03:09:16 51° 288° (WNW) 03:14:14 435.822/435.867
YUBILEINY 29 Nov 03:20:48 03:29:08 46° 284° (WNW) 03:37:29 435.215
BEESAT 2 29 Nov 03:21:35 03:24:42 20° 47° (NE) 03:27:47 435.950
HORYU 2 29 Nov 03:22:58 03:27:27 64° 102° (ESE) 03:31:55 437.375
ISS 29 Nov 03:38:22 03:40:52 20° 25° (NNE) 03:43:22 145.825
RS-15 29 Nov 03:38:59 03:44:23 15° 263° (W) 03:49:54 29.354- 29.394
MOZHAYETS 4 29 Nov 03:41:09 03:45:04 28° 69° (ENE) 03:49:02
Gurwin Techsat 1B 29 Nov 03:57:04 04:01:37 29° 293° (WNW) 04:06:08 435.225
AO-7 29 Nov 04:03:26 04:11:30 50° 101° (ESE) 04:19:31 29.400- 29.500
AIST 2 29 Nov 04:11:14 04:15:02 30° 51° (NE) 04:18:48 435.215
SO-50 29 Nov 04:13:23 04:16:47 20° 315° (NW) 04:20:15 436.795
JAS-2 29 Nov 04:14:03 04:18:33 19° 88° (E) 04:22:42 435.910
BEESAT 3 29 Nov 04:40:39 04:44:47 60° 242° (WSW) 04:48:51 437.485
PCSat 29 Nov 04:44:37 04:49:57 59° 246° (WSW) 04:55:14 145.827
BEESAT 2 29 Nov 04:59:12 05:03:10 41° 245° (WSW) 05:07:04 435.950
HORYU 2 29 Nov 05:01:46 05:03:34 12° 297° (WNW) 05:05:21 437.375
O/OREOS (USA 219) 29 Nov 05:11:26 05:15:53 71° 109° (ESE) 05:20:21 437.305
PRISM 29 Nov 05:12:43 05:16:47 50° 73° (ENE) 05:20:53 437.425
CUTE-I 29 Nov 05:13:38 05:15:45 12° 90° (E) 05:17:51 437.470
ISS 29 Nov 05:14:30 05:17:44 59° 222° (SW) 05:20:59 145.825
MOZHAYETS 4 29 Nov 05:18:24 05:22:14 26° 265° (W) 05:26:07
CUBESAT XI-V 29 Nov 05:32:22 05:36:30 31° 70° (ENE) 05:40:39 437.345
AIST 1 29 Nov 05:46:08 05:49:45 25° 75° (ENE) 05:53:19
STRAND 1 29 Nov 05:49:47 05:54:42 48° 71° (ENE) 05:59:39 437.568
AIST 2 29 Nov 05:50:00 05:53:33 26° 248° (WSW) 05:57:03 435.215
AO-7 29 Nov 05:56:35 06:04:01 37° 299° (WNW) 06:11:26 29.400- 29.500
JAS-2 29 Nov 05:57:29 06:04:19 65° 288° (WNW) 06:10:16 435.910
Cubesat XI-IV 29 Nov 06:10:46 06:15:54 47° 100° (E) 06:20:59 437.490
PRISM 29 Nov 06:50:49 06:52:36 12° 268° (W) 06:54:24 437.425
CUTE-I 29 Nov 06:51:01 06:56:20 74° 286° (WNW) 07:01:36 437.470
O/OREOS (USA 219) 29 Nov 06:54:07 06:55:47 12° 306° (NW) 06:57:28 437.305
CUBESAT XI-V 29 Nov 07:10:03 07:13:55 25° 265° (W) 07:17:48 437.345
GONETS M04 29 Nov 07:15:11 07:23:14 42° 87° (E) 07:31:20
AIST 1 29 Nov 07:23:47 07:27:18 24° 271° (W) 07:30:46
STRAND 1 29 Nov 07:30:34 07:34:07 19° 267° (W) 07:37:41 437.568
JAS-2 29 Nov 07:46:30 07:47:46 11° 308° (NW) 07:49:01 435.910
Cubesat XI-IV 29 Nov 07:51:42 07:55:37 21° 296° (WNW) 07:59:32 437.490
CUTE 1.7 + AOD 2 29 Nov 08:08:07 08:10:29 14° 92° (E) 08:12:50 437.475
HO-68 29 Nov 08:16:02 08:22:05 29° 96° (E) 08:28:05 435.675
SEEDS 29 Nov 08:35:22 08:38:56 25° 96° (E) 08:42:30 437.485
AAUSAT CUBESAT 2 29 Nov 08:44:42 08:48:09 24° 95° (E) 08:51:35 437.432
DOVE 4 29 Nov 08:46:05 08:49:13 20° 95° (E) 08:52:26 437.250
UNISAT 6 29 Nov 08:48:20 08:49:29 11° 63° (ENE) 08:50:38 437.425
UKube-1 29 Nov 08:50:32 08:51:30 11° 91° (E) 08:52:28 .
BRITE-PL 29 Nov 08:54:07 08:58:07 46° 99° (E) 09:02:15 437.365/2234.400
CINEMA 3 29 Nov 08:55:03 08:57:33 15° 93° (E) 09:00:06 145.822/145.860
Oscar 11 29 Nov 08:57:18 09:00:07 17° 93° (E) 09:02:55 145.826/435.025
COMPASS 1 29 Nov 09:02:10 09:06:14 43° 99° (E) 09:10:18 437.405
CANX-2 29 Nov 09:08:11 09:12:30 80° 102° (ESE) 09:16:49 2200.000
GONETS M04 29 Nov 09:11:50 09:19:59 41° 286° (WNW) 09:28:14
ANTELSAT 29 Nov 09:15:08 09:18:26 22° 68° (ENE) 09:21:44 437.575/2403.000
NANOSAT C BR1 29 Nov 09:15:17 09:17:45 15° 66° (ENE) 09:20:13 145.865
BUGSAT 1 29 Nov 09:17:06 09:19:06 13° 65° (ENE) 09:21:05 437.445
QB50P1 29 Nov 09:25:03 09:28:07 20° 67° (ENE) 09:31:10 145.935-145.965
DX 1 29 Nov 09:27:25 09:31:16 30° 97° (E) 09:35:05 434.975-435.025
UWE-3 29 Nov 09:32:56 09:36:15 21° 95° (E) 09:39:38 435.000/436.395/437.385
CUBEBUG 2 29 Nov 09:40:13 09:44:01 30° 97° (E) 09:47:54 437.445
CUTE 1.7 + AOD 2 29 Nov 09:42:31 09:46:37 44° 287° (WNW) 09:50:43 437.475
GOMX 1 29 Nov 09:44:33 09:48:42 63° 285° (WNW) 09:53:00 467.674
POPSAT HIP 1 29 Nov 09:49:25 09:53:19 36° 72° (ENE) 09:57:12 437.405
ZACube-1 29 Nov 09:59:03 10:03:00 36° 98° (E) 10:07:01 437.345
HO-68 29 Nov 10:03:07 10:10:00 51° 292° (WNW) 10:16:50 435.675
TIGRISAT 29 Nov 10:05:38 10:09:53 83° 76° (ENE) 10:14:09 435.000
DELFI C3 29 Nov 10:05:40 10:09:49 89° 103° (ESE) 10:13:58 145.870
SEEDS 29 Nov 10:11:10 10:14:41 25° 291° (WNW) 10:18:11 437.485
50 SAT 29 Nov 10:13:03 10:16:24 24° 96° (E) 10:19:44 437.505
VELOX 1 29 Nov 10:13:49 10:17:44 31° 97° (E) 10:21:38 145.980
AAUSAT CUBESAT 2 29 Nov 10:20:13 10:23:46 26° 290° (WNW) 10:27:18 437.432
UNISAT 6 29 Nov 10:21:30 10:25:43 63° 259° (W) 10:29:58 437.425
DOVE 4 29 Nov 10:23:18 10:27:02 31° 289° (WNW) 10:30:54 437.250
UKube-1 29 Nov 10:23:45 10:28:02 61° 286° (WNW) 10:32:17 .
POLYITAN 1 29 Nov 10:24:56 10:29:12 84° 258° (WSW) 10:33:27 437.675
QB50P2 29 Nov 10:25:23 10:29:39 83° 257° (WSW) 10:33:55 145.880/145.840
ESTCUBE 1 29 Nov 10:26:52 10:29:45 17° 93° (E) 10:32:37 437.505/2401.250
DUCHIFAT 1 29 Nov 10:28:53 10:33:07 78° 258° (WSW) 10:37:23 145.980
CINEMA 3 29 Nov 10:30:53 10:34:56 43° 287° (WNW) 10:39:07 145.822/145.860
Oscar 11 29 Nov 10:32:22 10:36:26 39° 288° (WNW) 10:40:29 145.826/435.025
FUNcube-1 29 Nov 10:32:46 10:37:03 89° 103° (ESE) 10:41:26 145.935
BRITE-PL 29 Nov 10:34:16 10:36:18 13° 294° (WNW) 10:38:22 437.365/2234.400
COMPASS 1 29 Nov 10:39:06 10:41:36 15° 294° (WNW) 10:44:06 437.405
CUBEBUG 1 29 Nov 10:41:27 10:44:51 22° 95° (E) 10:48:13 437.445
AISAT 29 Nov 10:42:06 10:46:31 67° 102° (ESE) 10:50:54 437.250
NANOSAT C BR1 29 Nov 10:49:13 10:53:16 43° 261° (W) 10:57:20 145.865
HUMSAT D 29 Nov 10:49:29 10:53:42 83° 103° (ESE) 10:57:57 437.325/437.525
BUGSAT 1 29 Nov 10:50:00 10:54:09 52° 260° (W) 10:58:17 437.445
ANTELSAT 29 Nov 10:51:24 10:55:05 28° 263° (W) 10:58:48 437.575/2403.000
QB50P1 29 Nov 10:59:56 11:03:47 33° 263° (W) 11:07:38 145.935-145.965
DX 1 29 Nov 11:03:59 11:07:20 22° 293° (WNW) 11:10:39 434.975-435.025
SO-50 29 Nov 11:04:21 11:08:48 34° 51° (NE) 11:13:15 436.795
UWE-3 29 Nov 11:09:03 11:12:48 30° 289° (WNW) 11:16:37 435.000/436.395/437.385
CUBEBUG 2 29 Nov 11:17:16 11:20:34 22° 291° (WNW) 11:23:56 437.445
POPSAT HIP 1 29 Nov 11:26:29 11:29:19 17° 266° (W) 11:32:10 437.405
TISAT 1 29 Nov 11:28:19 11:31:10 18° 94° (E) 11:33:59 437.305
ZACube-1 29 Nov 11:36:09 11:39:08 19° 292° (WNW) 11:42:09 437.345
YUBILEINY 29 Nov 11:37:36 11:42:36 16° 62° (ENE) 11:47:33 435.215
Oscar 19 29 Nov 11:42:02 11:45:13 17° 63° (ENE) 11:48:25 437.125/150
50 SAT 29 Nov 11:48:18 11:51:36 24° 290° (WNW) 11:54:55 437.505
SPROUT 29 Nov 11:49:36 11:53:17 28° 96° (E) 11:56:57 437.525
VELOX 1 29 Nov 11:50:43 11:54:09 22° 293° (WNW) 11:57:34 145.980
CUSAT 1 29 Nov 11:55:04 11:56:45 16° 92° (E) 11:58:27 437.405
ESTCUBE 1 29 Nov 12:02:31 12:06:49 43° 288° (WNW) 12:11:04 437.505/2401.250
CUBEBUG 1 29 Nov 12:17:26 12:21:13 30° 290° (WNW) 12:24:58 437.445
AISAT 29 Nov 12:21:13 12:22:34 11° 298° (WNW) 12:23:55 437.250
ITUPSAT 1 29 Nov 12:27:15 12:28:45 11° 90° (E) 12:30:15 437.325
VERMONT LUNAR 29 Nov 12:28:32 12:31:44 31° 152° (SSE) 12:34:58 437.305
PHONESAT 2.4 29 Nov 12:33:45 12:36:48 25° 149° (SSE) 12:39:53 2401.200-2431.200
SWISSCUBE 29 Nov 12:35:22 12:38:18 16° 92° (E) 12:41:13 437.505
DANDE 29 Nov 12:37:18 12:39:59 68° 99° (E) 12:42:34 436.750
AUBIESAT-1 29 Nov 12:41:28 12:44:32 17° 96° (E) 12:47:31 437.475
ITAMSAT 1 29 Nov 12:42:38 12:46:48 25° 66° (ENE) 12:50:59 435.822/435.867
SO-50 29 Nov 12:45:03 12:49:15 29° 247° (WSW) 12:53:28 436.795
M-CUBED/EXP-1 PRIME 29 Nov 12:48:56 12:52:43 22° 98° (E) 12:56:23 437.505
TISAT 1 29 Nov 13:03:16 13:07:06 35° 289° (WNW) 13:10:54 437.305
BEESAT 29 Nov 13:04:32 13:08:45 30° 97° (E) 13:12:56 436.000
AO-7 29 Nov 13:14:44 13:17:47 13° 46° (NE) 13:20:49 29.400- 29.500
Oscar 19 29 Nov 13:19:03 13:24:04 57° 259° (W) 13:29:07 437.125/150
MaSat-1 29 Nov 13:25:19 13:27:05 15° 109° (ESE) 13:28:47 437.345
SPROUT 29 Nov 13:25:52 13:29:14 23° 291° (WNW) 13:32:37 437.525
YUBILEINY 29 Nov 13:32:01 13:40:46 85° 83° (E) 13:49:27 435.215
Gurwin Techsat 1B 29 Nov 13:36:42 13:41:44 46° 71° (ENE) 13:46:48 435.225
RS-15 29 Nov 13:37:24 13:44:09 19° 100° (E) 13:50:50 29.354- 29.394
O/OREOS (USA 219) 29 Nov 13:45:53 13:47:13 11° 53° (NE) 13:48:32 437.305
ITUPSAT 1 29 Nov 14:02:19 14:07:06 69° 286° (WNW) 14:11:50 437.325
KKS-1 29 Nov 14:04:40 14:08:22 25° 96° (E) 14:12:03 437.445
